[[{"header":{"parameterUnit":"m.s-1","parameterCategory":1,"la1":30.2991,"la2":30.254,"lo1":-89.0895,"lo2":-89.0444,"dy":0.0017,"dx":0.0017,"nx":28,"ny":28,"refTime":"2024-10-21T21:00:00:Z","depth":0,"parameterNumber":2,"parameterNumberName":"U-component_of_WINDS"},"data":[0,0,0,0,0,0,0,0,0,0,0,0,0,0,0,0,0,0,0,0,0,0,0,0,0,0,0,0,0,0,0,0,0,0,0,0,0,0,0,0,0,0,0,0,0,0,0,0,0,0,0,0,0,0,0,0,0,0,0.2098,0.2099,0,0.2165,0.2166,0.2167,0.2233,0.2234,0.2235,0.2236,0.2305,0.2305,0.2306,0,0,0,0,0,0,0,0,0,0,0,0,0,0.2026,0.2027,0.2098,0.2099,0.2099,0.2165,0.2166,0.2167,0.2233,0.2234,0.2235,0.2236,0.2304,0.2305,0.2307,0,0,0,0,0,0,0,0,0,0,0,0,0,0.2072,0.2028,0.2098,0.2141,0.2145,0.2165,0.2166,0.2167,0.2233,0.2234,0.2236,0.2237,0.2304,0.2305,0.2307,0.2289,0,0,0.2311,0.2312,0,0,0,0,0,0,0,0,0.2069,0.2074,0.2133,0.2138,0.2143,0.2192,0.2166,0.2208,0.2233,0.22,0.2236,0.2238,0.2266,0.2271,0.228,0.2292,0.2295,0.2311,0.2312,0.2313,0.2313,0,0,0,0,0,0,0,0.2066,0.2072,0.2124,0.2134,0.214,0.2156,0.2164,0.2174,0.2225,0.2203,0.2208,0.2215,0.2269,0.2279,0.2283,0.2296,0.2311,0.2313,0.2314,0.2314,0.2297,0.2295,0,0,0,0,0,0,0.2056,0.2069,0.2122,0.2126,0.2108,0.2156,0.2165,0.2175,0.2225,0.2233,0.2214,0.2218,0.2276,0.2281,0.2285,0.2267,0.2313,0.2314,0.2315,0.2298,0.2296,0.2295,0,0,0,0,0,0,0.2054,0.206,0.212,0.2099,0.2108,0.2156,0.2167,0.2176,0.2186,0.2233,0.2242,0.2214,0.2277,0.2283,0.2288,0.2271,0.2315,0.2316,0.2299,0.2297,0.2296,0.2231,0,0,0,0,0,0,0.2052,0.2059,0.2053,0.2098,0.2109,0.2121,0.2166,0.2176,0.2188,0.2194,0.2236,0.2244,0.2278,0.2285,0.2289,0.2273,0.2318,0.2301,0.2299,0.2296,0.2235,0.2227,0.2221,0,0,0,0,0,0.2049,0.2033,0.2053,0.2059,0.2102,0.212,0.2126,0.2165,0.2186,0.2181,0.2211,0.2243,0.2272,0.2285,0.229,0.2275,0.2302,0.2299,0.2296,0.2238,0.2229,0.2221,0,0,0,0,0,0,0.1985,0.2039,0.2062,0.206,0.2084,0.2131,0.2125,0.2154,0.2173,0.2178,0.2226,0.2235,0.2233,0.2255,0.2268,0.226,0.2292,0.2289,0.2246,0.2237,0.223,0.2225,0.2319,0,0,0,0,0,0.197,0.198,0.2027,0.202,0.2032,0.2076,0.2085,0.2113,0.2141,0.2152,0.2182,0.2208,0.2223,0.2231,0.2248,0.2239,0.2248,0.2231,0.2223,0.2217,0.2215,0.2211,0.2203,0.2285,0.2285,0.2285,0,0,0.194,0.1971,0.1974,0.2008,0.2031,0.2039,0.2084,0.2092,0.2099,0.2153,0.2159,0.2182,0.2213,0.2211,0.2211,0.2229,0.2194,0.2213,0.2208,0.2209,0.2207,0.2199,0.2192,0.2283,0.2283,0.2283,0,0,0.1889,0.1914,0.1911,0.1933,0.1966,0.1996,0.1995,0.2037,0.2054,0.2061,0.2101,0.211,0.2135,0.2155,0.2169,0.2125,0.2155,0.2129,0.2091,0.2087,0.208,0.2075,0.2058,0.2052,0.2127,0.2127,0.2127,0,0.1848,0.1863,0.1906,0.191,0.1924,0.1973,0.197,0.1989,0.2026,0.2033,0.2052,0.2084,0.2109,0.2111,0.21,0.211,0.211,0.2125,0.2078,0.2073,0.2068,0.2053,0.2047,0.2123,0.2124,0.2124,0.2124,0,0.1809,0.1819,0.1812,0.1846,0.1859,0.186,0.1902,0.191,0.1937,0.1964,0.197,0.2001,0.2024,0.2027,0.2054,0.2033,0.2043,0.2069,0.2102,0.2056,0.2043,0.2037,0.2118,0.2119,0.212,0.2121,0,0,0.172,0.1777,0.1774,0.179,0.183,0.1838,0.1841,0.1864,0.1869,0.1893,0.1895,0.1915,0.1939,0.1955,0.1984,0.198,0.1942,0.2007,0.2008,0.1993,0.192,0.19,0.1892,0.1963,0.1962,0.1961,0.1917,0,0.1675,0.1683,0.1722,0.1718,0.1727,0.1774,0.1776,0.1801,0.1826,0.1837,0.1866,0.1878,0.191,0.1919,0.1918,0.1947,0.1928,0.1951,0.1965,0.1965,0.1955,0.1886,0.1864,0.1821,0.1913,0.1912,0.1911,0,0.1625,0.1645,0.1642,0.1682,0.1687,0.1688,0.1711,0.1722,0.1751,0.1769,0.1786,0.1819,0.1824,0.1855,0.1862,0.1876,0.1884,0.19,0.1899,0.1901,0.1935,0.1885,0.1808,0.1801,0.1903,0.1904,0.1905,0,0.1558,0.1585,0.1586,0.1599,0.1645,0.1645,0.1664,0.1694,0.1705,0.1726,0.1733,0.1754,0.1764,0.178,0.1817,0.1836,0.1819,0.1854,0.1834,0.1833,0.1828,0.1827,0.175,0.1834,0.1834,0.1835,0.1835,0,0.1504,0.15,0.1557,0.1558,0.1555,0.1599,0.1594,0.1618,0.1644,0.165,0.1693,0.1697,0.1747,0.1757,0.1786,0.1786,0.1791,0.1806,0.1814,0.1802,0.18,0.1807,0.1811,0.1833,0.1833,0.1834,0.1834,0,0.1429,0.1467,0.1472,0.1515,0.1526,0.1522,0.1559,0.1561,0.1589,0.1596,0.16,0.1644,0.1658,0.1697,0.1721,0.174,0.1732,0.1747,0.1722,0.1727,0.1705,0.1706,0.1629,0.1621,0.1711,0.171,0.1709,0,0.1392,0.139,0.1433,0.144,0.1457,0.1468,0.1479,0.1523,0.1532,0.1565,0.1563,0.158,0.1596,0.1616,0.165,0.1668,0.1683,0.1655,0.1686,0.1674,0.1681,0.1681,0.168,0.1648,0.1647,0.1646,0.1645,0,0.1321,0.1339,0.1354,0.1375,0.1387,0.1405,0.1426,0.143,0.1478,0.1487,0.1502,0.1514,0.1538,0.1554,0.1578,0.1598,0.1629,0.1635,0.1631,0.1618,0.1603,0.161,0.1702,0.1636,0.1637,0.1638,0.1638,0.1639,0.1263,0.1263,0.1293,0.1307,0.1328,0.1346,0.135,0.1378,0.1391,0.1414,0.1439,0.1451,0.1479,0.1514,0.1532,0.1541,0.1558,0.1552,0.1551,0.1549,0.1543,0.1603,0.1546,0.1546,0.1546,0.1546,0.1547,0,0.1193,0.1215,0.1228,0.1255,0.1266,0.1296,0.132,0.1327,0.1337,0.1361,0.1376,0.1392,0.1408,0.1443,0.1461,0.1462,0.1477,0.1466,0.1465,0.1469,0.1527,0.1528,0.1453,0.1453,0.1453,0.1453,0.1453,0.1453,0.1158,0.1159,0.1181,0.1193,0.1215,0.1226,0.1238,0.1255,0.1274,0.129,0.1303,0.1326,0.1354,0.1375,0.1391,0.1401,0.1405,0.1389,0.1403,0.1456,0.1465,0.1474,0.1475,0.139,0.139,0.1344,0.1344,0.1344]},{"header":{"parameterUnit":"m.s-1","parameterCategory":1,"la1":30.2991,"la2":30.254,"lo1":-89.0895,"lo2":-89.0444,"dy":0.0017,"dx":0.0017,"nx":28,"ny":28,"refTime":"2024-10-21T21:00:00:Z","depth":0,"parameterNumber":3,"parameterNumberName":"V-component_of_WINDS"},"data":[0,0,0,0,0,0,0,0,0,0,0,0,0,0,0,0,0,0,0,0,0,0,0,0,0,0,0,0,0,0,0,0,0,0,0,0,0,0,0,0,0,0,0,0,0,0,0,0,0,0,0,0,0,0,0,0,0,0,0.5548,0.5548,0,0.5523,0.5522,0.5522,0.5513,0.5513,0.5513,0.5513,0.5483,0.5482,0.5481,0,0,0,0,0,0,0,0,0,0,0,0,0,0.5584,0.5584,0.5548,0.5548,0.5547,0.5523,0.5522,0.5522,0.5513,0.5513,0.5513,0.5513,0.5483,0.5482,0.5481,0,0,0,0,0,0,0,0,0,0,0,0,0,0.5565,0.5583,0.5548,0.554,0.5539,0.5523,0.5522,0.5522,0.5513,0.5513,0.5513,0.5513,0.5484,0.5482,0.5481,0.547,0,0,0.5477,0.5476,0,0,0,0,0,0,0,0,0.5566,0.5563,0.5541,0.554,0.5539,0.5521,0.5524,0.5504,0.5513,0.5523,0.5513,0.5513,0.5495,0.5493,0.5488,0.5468,0.5467,0.5477,0.5476,0.5475,0.5475,0,0,0,0,0,0,0,0.5567,0.5564,0.5538,0.5541,0.554,0.5536,0.5534,0.552,0.5508,0.5522,0.5521,0.5518,0.5495,0.5489,0.5487,0.5467,0.5477,0.5476,0.5475,0.5474,0.5436,0.5436,0,0,0,0,0,0,0.557,0.5566,0.5539,0.5537,0.5553,0.5535,0.5533,0.5527,0.5508,0.5506,0.5518,0.5518,0.5491,0.5489,0.5486,0.5472,0.5475,0.5474,0.5473,0.5437,0.5436,0.5436,0,0,0,0,0,0,0.5571,0.5568,0.554,0.5551,0.5547,0.5535,0.5528,0.5526,0.5521,0.5506,0.5503,0.5515,0.5491,0.5488,0.5474,0.547,0.5473,0.5472,0.5437,0.5437,0.5436,0.5443,0,0,0,0,0,0,0.5572,0.5568,0.5565,0.5551,0.5547,0.553,0.5528,0.5526,0.5519,0.5518,0.5502,0.55,0.5491,0.5476,0.5473,0.5469,0.5471,0.5437,0.5437,0.5436,0.5443,0.5443,0.5443,0,0,0,0,0,0.5574,0.5567,0.5565,0.5562,0.5542,0.5529,0.5527,0.5518,0.5519,0.5514,0.5505,0.55,0.5472,0.5475,0.5471,0.5466,0.5437,0.5437,0.5436,0.5443,0.5443,0.5443,0,0,0,0,0,0,0.5579,0.5565,0.5562,0.5551,0.5542,0.5528,0.5522,0.5519,0.5508,0.5507,0.5496,0.5493,0.548,0.5472,0.5476,0.5454,0.5454,0.5453,0.546,0.546,0.546,0.5462,0.547,0,0,0,0,0,0.5579,0.5571,0.5559,0.555,0.5546,0.5535,0.5529,0.5524,0.5513,0.5508,0.5498,0.5486,0.5474,0.5467,0.5455,0.5442,0.5438,0.5437,0.5437,0.5437,0.5436,0.5428,0.5427,0.5435,0.5435,0.5435,0,0,0.5579,0.557,0.5565,0.5551,0.5543,0.5534,0.5531,0.5522,0.5515,0.5506,0.5493,0.5485,0.5471,0.5458,0.5451,0.545,0.5433,0.5436,0.5436,0.5435,0.5427,0.5427,0.5426,0.5434,0.5435,0.5435,0,0,0.5574,0.5567,0.5559,0.5551,0.554,0.5533,0.5531,0.5518,0.5512,0.55,0.5493,0.5484,0.5464,0.5454,0.5447,0.5439,0.5434,0.5435,0.5435,0.5427,0.5427,0.5426,0.5423,0.5422,0.5434,0.5434,0.5434,0,0.5574,0.5562,0.5555,0.5546,0.5539,0.5533,0.5524,0.5517,0.5501,0.5496,0.5496,0.5472,0.5462,0.5446,0.5445,0.5439,0.5435,0.5437,0.5428,0.5427,0.5426,0.5423,0.5422,0.5435,0.5435,0.5434,0.5434,0,0.5563,0.5554,0.5549,0.5536,0.5529,0.552,0.5511,0.5504,0.55,0.5492,0.5479,0.5467,0.5453,0.5449,0.5444,0.5432,0.5432,0.543,0.5429,0.5426,0.5423,0.5421,0.5435,0.5435,0.5435,0.5435,0,0,0.556,0.5544,0.5542,0.5537,0.5524,0.5516,0.5507,0.5495,0.5489,0.5479,0.547,0.5454,0.5452,0.5443,0.5437,0.543,0.5424,0.5428,0.5428,0.5428,0.5411,0.5413,0.5411,0.5421,0.5421,0.5421,0.5412,0,0.5553,0.5538,0.5531,0.5518,0.551,0.5504,0.5495,0.5486,0.5479,0.5469,0.5461,0.545,0.5448,0.5443,0.5436,0.5427,0.5421,0.5427,0.5411,0.5411,0.5415,0.541,0.5411,0.5404,0.5411,0.541,0.541,0,0.5543,0.5534,0.5521,0.5509,0.5505,0.5498,0.5487,0.5478,0.5467,0.5462,0.5454,0.5448,0.5436,0.5437,0.542,0.5425,0.5418,0.5412,0.5412,0.5409,0.541,0.5407,0.5401,0.54,0.5408,0.5408,0.5408,0,0.5542,0.5527,0.5517,0.5512,0.5498,0.5493,0.5487,0.5476,0.5469,0.5459,0.5454,0.5442,0.5435,0.5425,0.5415,0.5417,0.54,0.5399,0.5395,0.5395,0.5391,0.5391,0.5383,0.5387,0.5387,0.5387,0.5387,0,0.5535,0.5527,0.5516,0.551,0.5501,0.5493,0.5483,0.5476,0.5467,0.5458,0.5452,0.5443,0.5432,0.5422,0.5414,0.5401,0.5398,0.5393,0.5391,0.5393,0.5394,0.5388,0.5389,0.5387,0.5387,0.5387,0.5387,0,0.5532,0.5525,0.5514,0.5502,0.5499,0.5492,0.5482,0.5475,0.5468,0.5457,0.5454,0.5442,0.543,0.542,0.5404,0.5398,0.5385,0.5383,0.539,0.5388,0.5384,0.5385,0.5372,0.537,0.5376,0.5376,0.5375,0,0.5528,0.5521,0.551,0.5504,0.5499,0.549,0.5483,0.5475,0.5469,0.5456,0.545,0.5438,0.5428,0.5408,0.5398,0.5385,0.5382,0.5379,0.538,0.5383,0.5381,0.5382,0.5381,0.5378,0.5378,0.5378,0.5378,0,0.5521,0.5518,0.5509,0.55,0.5493,0.5484,0.5476,0.5471,0.5461,0.5454,0.5443,0.5435,0.5419,0.5406,0.5393,0.5385,0.5379,0.5378,0.5376,0.5378,0.5383,0.538,0.5389,0.5378,0.5378,0.5378,0.5378,0.5378,0.5517,0.5511,0.5502,0.5493,0.5486,0.5478,0.5472,0.5464,0.5455,0.5443,0.5438,0.5426,0.5415,0.5396,0.5388,0.5378,0.5377,0.5374,0.5373,0.5373,0.5373,0.5385,0.5375,0.5375,0.5375,0.5375,0.5375,0,0.5509,0.5504,0.5495,0.5484,0.5477,0.5475,0.5465,0.5459,0.5449,0.5439,0.543,0.5416,0.5404,0.5393,0.538,0.5374,0.5371,0.5371,0.5371,0.5369,0.5375,0.5377,0.5373,0.5373,0.5373,0.5373,0.5373,0.5373,0.5505,0.5495,0.5491,0.5478,0.5471,0.5461,0.5456,0.5448,0.5441,0.5426,0.5417,0.541,0.54,0.5386,0.5375,0.5372,0.5367,0.5367,0.5363,0.5368,0.5369,0.5369,0.5372,0.5366,0.5366,0.5359,0.5359,0.5359]}]]